This demonstration page uses our WeatherBlox Daily Observations layout. Learn more.

Left ArrowRight Arrow

38.83388, -104.82136

Hourly Observations for January 11, 2017

Temp ( °F °C ) Dew Point ( °F °C ) Humidity (%) Winds ( mph kmh ) Pressure ( in mb ) Visibility ( mi km ) Precip ( " mm )
12:01 am 00:01 Mostly Clear 46 8 14 -10 27 27 W 21 33 29.35 994 10 16 N/A
12:04 am 00:04 Partly Cloudy 46 8 14 -10 27 27 SW 20 31 29.38 995 10 16 N/A
12:05 am 00:05 Partly Cloudy 46 8 14 -10 27 27 NW 18 30 29.38 995 10 16 N/A
12:07 am 00:07 Mostly Cloudy 46 8 14 -10 27 27 NNE 20 31 29.35 994 10 16 N/A
12:08 am 00:08 Mostly Cloudy 46 8 14 -10 27 27 N 21 33 29.35 994 10 16 N/A
12:14 am 00:14 Mostly Cloudy 46 8 14 -10 27 27 WNW 32 52 29.35 994 10 16 N/A
12:20 am 00:20 Mostly Cloudy 48 9 16 -9 27 27 W 29 46 29.35 994 10 16 N/A
12:23 am 00:23 Mostly Cloudy 48 9 16 -9 27 27 NW 23 37 29.32 993 10 16 N/A
12:25 am 00:25 Mostly Cloudy 48 9 16 -9 27 27 NW 28 44 29.32 993 10 16 N/A
12:28 am 00:28 Mostly Cloudy 48 9 14 -10 25 25 NW 45 72 29.35 994 10 16 N/A
12:36 am 00:36 Mostly Cloudy 48 9 16 -9 27 27 WNW 35 56 29.35 994 10 16 N/A
12:42 am 00:42 Mostly Cloudy 48 9 16 -9 27 27 NW 32 52 29.32 993 10 16 N/A
12:53 am 00:53 Mostly Cloudy 48 9 16 -9 27 27 N 30 48 29.32 993 10 16 N/A
12:58 am 00:58 Mostly Cloudy 47 8.6 15 -9.5 27 27 NNW 25 41 29.16 987 10 16 N/A
1:03 am 01:03 Mostly Cloudy 46 8 16 -9 29 29 WNW 32 52 29.35 994 10 16 N/A
1:06 am 01:06 Mostly Cloudy 46 8 16 -9 29 29 NW 28 44 29.35 994 10 16 N/A
1:14 am 01:14 Partly Cloudy 46 8 16 -9 29 29 WNW 25 41 29.38 995 10 16 N/A
1:16 am 01:16 Partly Cloudy 46 8 16 -9 29 29 NNW 21 33 29.38 995 10 16 N/A
1:22 am 01:22 Mostly Clear 46 8 16 -9 29 29 WNW 29 46 29.35 994 10 16 N/A
1:25 am 01:25 Mostly Clear 46 8 16 -9 29 29 NNW 29 46 29.32 993 10 16 N/A
1:27 am 01:27 Mostly Clear 48 9 16 -9 27 27 W 30 48 29.32 993 10 16 N/A
1:29 am 01:29 Mostly Clear 48 9 16 -9 27 27 NW 28 44 29.32 993 10 16 N/A
1:37 am 01:37 Mostly Clear 46 8 16 -9 29 29 SSW 29 46 29.35 994 10 16 N/A
1:39 am 01:39 Mostly Clear 46 8 16 -9 29 29 NNW 25 41 29.35 994 10 16 N/A
1:41 am 01:41 Mostly Clear 46 8 16 -9 29 29 W 22 35 29.38 995 10 16 N/A
1:42 am 01:42 Partly Cloudy 46 8 16 -9 29 29 WNW 20 31 29.38 995 10 16 N/A
1:44 am 01:44 Partly Cloudy 46 8 16 -9 29 29 W 25 41 29.38 995 10 16 N/A
1:48 am 01:48 Partly Cloudy 46 8 16 -9 29 29 S 28 44 29.32 993 10 16 N/A
1:49 am 01:49 Partly Cloudy 46 8 16 -9 29 29 E 22 35 29.35 994 10 16 N/A
1:50 am 01:50 Partly Cloudy 46 8 16 -9 29 29 NNW 28 44 29.35 994 10 16 N/A
1:53 am 01:53 Mostly Clear 46 8 16 -9 29 29 ESE 20 31 29.35 994 10 16 N/A
1:55 am 01:55 Mostly Clear 46 8 16 -9 29 29 NE 14 22 29.35 994 10 16 N/A
1:57 am 01:57 Partly Cloudy 46 8 16 -9 29 29 N 21 33 29.35 994 10 16 N/A
2:00 am 02:00 Partly Cloudy 46 8 16 -9 29 29 NNE 28 44 29.32 993 10 16 N/A
2:01 am 02:01 Mostly Cloudy 46 8 16 -9 29 29 NNE 14 22 29.35 994 10 16 N/A
2:03 am 02:03 Mostly Cloudy 46 8 16 -9 29 29 ESE 16 26 29.35 994 10 16 N/A
2:06 am 02:06 Mostly Cloudy 46 8 16 -9 29 29 E 24 39 29.32 993 10 16 N/A
2:08 am 02:08 Mostly Cloudy 46 8 16 -9 29 29 NE 21 33 29.35 994 10 16 N/A
2:10 am 02:10 Mostly Cloudy 46 8 16 -9 29 29 ENE 17 28 29.35 994 10 16 N/A
2:14 am 02:14 Mostly Cloudy 46 8 16 -9 29 29 W 15 24 29.38 995 10 16 N/A
2:15 am 02:15 Mostly Cloudy 46 8 16 -9 29 29 S 18 30 29.38 995 10 16 N/A
2:17 am 02:17 Partly Cloudy 46 8 16 -9 29 29 NE 24 39 29.32 993 10 16 N/A
2:18 am 02:18 Partly Cloudy 46 8 16 -9 29 29 WNW 21 33 29.32 993 10 16 N/A
2:19 am 02:19 Partly Cloudy 46 8 16 -9 29 29 NW 20 31 29.35 994 10 16 N/A
2:22 am 02:22 Mostly Cloudy 46 8 16 -9 29 29 W 21 33 29.35 994 10 16 N/A
2:25 am 02:25 Mostly Cloudy 46 8 16 -9 29 29 W 28 44 29.35 994 10 16 N/A
2:27 am 02:27 Mostly Cloudy 46 8 16 -9 29 29 WNW 31 50 29.32 993 10 16 N/A
2:29 am 02:29 Mostly Cloudy 46 8 16 -9 29 29 S 24 39 29.35 994 10 16 N/A
2:30 am 02:30 Mostly Cloudy 46 8 16 -9 29 29 WNW 23 37 29.38 995 10 16 N/A
2:33 am 02:33 Partly Cloudy 48 9 16 -9 27 27 WNW 28 44 29.35 994 10 16 N/A
2:34 am 02:34 Partly Cloudy 48 9 16 -9 27 27 NNW 33 54 29.32 993 10 16 N/A
2:35 am 02:35 Partly Cloudy 48 9 16 -9 27 27 WNW 31 50 29.32 993 10 16 N/A
2:37 am 02:37 Mostly Clear 46 8 16 -9 29 29 NNW 23 37 29.38 995 10 16 N/A
2:41 am 02:41 Mostly Clear 46 8 16 -9 29 29 WNW 20 31 29.38 995 10 16 N/A
2:43 am 02:43 Mostly Clear 46 8 16 -9 29 29 SSW 21 33 29.38 995 10 16 N/A
2:44 am 02:44 Mostly Clear 46 8 16 -9 29 29 W 24 39 29.38 995 10 16 N/A
2:45 am 02:45 Mostly Clear 46 8 16 -9 29 29 NNW 26 43 29.38 995 10 16 N/A
2:46 am 02:46 Mostly Clear 46 8 16 -9 29 29 N 29 46 29.32 993 10 16 N/A
2:50 am 02:50 Mostly Clear 46 8 16 -9 29 29 NNW 24 39 29.35 994 10 16 N/A
2:58 am 02:58 Mostly Clear 47 8.4 15 -9.4 28 28 NNW 30 48 29.12 986 10 16 N/A
3:01 am 03:01 Mostly Clear 46 8 16 -9 29 29 W 25 41 29.38 995 10 16 N/A
3:04 am 03:04 Mostly Clear 46 8 16 -9 29 29 N 22 35 29.38 995 10 16 N/A
3:06 am 03:06 Mostly Clear 46 8 16 -9 29 29 NW 23 37 29.38 995 10 16 N/A
3:18 am 03:18 Clear 48 9 16 -9 27 27 NNW 28 44 29.35 994 10 16 N/A
3:26 am 03:26 Mostly Clear 48 9 18 -8 29 29 WNW 18 30 29.35 994 10 16 N/A
3:29 am 03:29 Mostly Clear 48 9 18 -8 29 29 NW 26 43 29.35 994 10 16 N/A
3:30 am 03:30 Mostly Clear 48 9 18 -8 29 29 NW 32 52 29.35 994 10 16 N/A
3:35 am 03:35 Partly Cloudy 48 9 18 -8 29 29 S 33 54 29.35 994 10 16 N/A
3:36 am 03:36 Partly Cloudy 48 9 18 -8 29 29 SE 22 35 29.35 994 10 16 N/A
3:39 am 03:39 Mostly Cloudy 48 9 18 -8 29 29 NNW 23 37 29.35 994 10 16 N/A
3:41 am 03:41 Mostly Cloudy 48 9 18 -8 29 29 SW 22 35 29.35 994 10 16 N/A
3:42 am 03:42 Mostly Cloudy 48 9 18 -8 29 29 W 21 33 29.35 994 10 16 N/A
3:45 am 03:45 Mostly Cloudy 48 9 18 -8 29 29 NW 23 37 29.35 994 10 16 N/A
3:47 am 03:47 Mostly Cloudy 48 9 18 -8 29 29 N 15 24 29.35 994 10 16 N/A
3:49 am 03:49 Mostly Cloudy 48 9 18 -8 29 29 N 25 41 29.35 994 10 16 N/A
3:51 am 03:51 Mostly Cloudy 48 9 18 -8 29 29 SSW 23 37 29.35 994 10 16 N/A
3:52 am 03:52 Mostly Cloudy 48 9 18 -8 29 29 WSW 17 28 29.41 996 10 16 N/A
3:53 am 03:53 Mostly Cloudy 48 9 18 -8 29 29 WNW 20 31 29.35 994 10 16 N/A
3:57 am 03:57 Mostly Cloudy 46 8 18 -8 32 32 NNW 20 31 29.41 996 10 16 N/A
4:00 am 04:00 Mostly Cloudy 46 8 19 -7 34 34 NW 25 41 29.38 995 10 16 N/A
4:04 am 04:04 Mostly Cloudy 46 8 19 -7 34 34 NNW 17 28 29.38 995 10 16 N/A
4:08 am 04:08 Mostly Cloudy 46 8 19 -7 34 34 NNW 24 39 29.38 995 10 16 N/A
4:10 am 04:10 Mostly Cloudy 46 8 19 -7 34 34 NW 22 35 29.38 995 10 16 N/A
4:12 am 04:12 Mostly Cloudy 46 8 19 -7 34 34 SW 18 30 29.38 995 10 16 N/A
4:14 am 04:14 Mostly Cloudy 46 8 19 -7 34 34 NNE 23 37 29.38 995 10 16 N/A
4:15 am 04:15 Mostly Cloudy 46 8 19 -7 34 34 N 22 35 29.38 995 10 16 N/A
4:18 am 04:18 Mostly Cloudy 46 8 19 -7 34 34 W 25 41 29.38 995 10 16 N/A
4:20 am 04:20 Mostly Cloudy 46 8 19 -7 34 34 NNW 18 30 29.38 995 10 16 N/A
4:22 am 04:22 Mostly Cloudy 46 8 19 -7 34 34 N 18 30 29.38 995 10 16 N/A
4:24 am 04:24 Mostly Cloudy 46 8 19 -7 34 34 N 15 24 29.38 995 10 16 N/A
4:26 am 04:26 Mostly Cloudy 46 8 19 -7 34 34 NNE 24 39 29.38 995 10 16 N/A
4:29 am 04:29 Mostly Cloudy 46 8 19 -7 34 34 ENE 22 35 29.38 995 10 16 N/A
4:32 am 04:32 Mostly Cloudy 46 8 19 -7 34 34 WNW 20 31 29.38 995 10 16 N/A
4:36 am 04:36 Mostly Cloudy 46 8 19 -7 34 34 NNW 22 35 29.35 994 10 16 N/A
4:39 am 04:39 Mostly Cloudy 46 8 19 -7 34 34 NNE 14 22 29.38 995 10 16 N/A
4:42 am 04:42 Mostly Cloudy 46 8 19 -7 34 34 ENE 15 24 29.35 994 10 16 N/A
4:43 am 04:43 Mostly Cloudy 46 8 19 -7 34 34 SE 21 33 29.35 994 10 16 N/A
4:45 am 04:45 Mostly Cloudy 46 8 19 -7 34 34 NE 20 31 29.38 995 10 16 N/A
4:47 am 04:47 Partly Cloudy 46 8 19 -7 34 34 N 15 24 29.38 995 10 16 N/A
4:48 am 04:48 Partly Cloudy 46 8 19 -7 34 34 E 18 30 29.38 995 10 16 N/A

Powered by AerisWeather